When you browse on this site, cookies collect data to enhance your experience and personalize the content and advertising you see.
Visit our Privacy Policy to learn more. By continuing to use the site, you agree to this use of cookies and data.
  • In Spain
  • List of Countries
  • For 7 days
  • Water Temperature
  • Satellite Maps
  • Weather Map
  • Weather Widgets
  • user-avatar
    Login

    Hourly Weather Vonlyarovo

    Today, 24 May, Friday

    Time Temperature Precipitation Wind Pressure Humidity
    00:00 +16°C° 0 mm 1 mps 738 mmHg 93%
    01:00 +15°C° 0 mm 2 mps 738 mmHg 94%
    02:00 +14°C° 0 mm 1 mps 738 mmHg 95%
    03:00 +15°C° 0.5 mm 2 mps 738 mmHg 96%
    04:00 +15°C° 0.5 mm 2 mps 739 mmHg 96%
    05:00 +14°C° 0.5 mm 3 mps 739 mmHg 97%
    06:00 +16°C° 0.1 mm 3 mps 739 mmHg 94%
    07:00 +16°C° 0.1 mm 3 mps 739 mmHg 92%
    08:00 +17°C° 0 mm 3 mps 740 mmHg 90%
    09:00 +17°C° 0.2 mm 3 mps 740 mmHg 89%
    10:00 +17°C° 0.2 mm 3 mps 740 mmHg 89%
    11:00 +17°C° 0.2 mm 4 mps 740 mmHg 89%
    12:00 +17°C° 0 mm 4 mps 740 mmHg 86%
    13:00 +18°C° 0 mm 4 mps 740 mmHg 84%
    14:00 +19°C° 0 mm 4 mps 740 mmHg 82%
    15:00 +19°C° 0.5 mm 4 mps 739 mmHg 82%
    16:00 +19°C° 0.5 mm 4 mps 739 mmHg 83%
    17:00 +19°C° 0.5 mm 4 mps 739 mmHg 83%
    18:00 +18°C° 0.3 mm 3 mps 739 mmHg 87%
    19:00 +18°C° 0.3 mm 3 mps 739 mmHg 90%
    20:00 +17°C° 0.3 mm 3 mps 739 mmHg 94%
    21:00 +16°C° 0.1 mm 3 mps 739 mmHg 95%
    22:00 +16°C° 0.1 mm 3 mps 739 mmHg 96%
    23:00 +14°C° 0.1 mm 3 mps 739 mmHg 97%

    Tomorrow, 25 May, Saturday

    Time Temperature Precipitation Wind Pressure Humidity
    00:00 +14°C° 0 mm 3 mps 738 mmHg 97%
    01:00 +14°C° 0 mm 3 mps 738 mmHg 97%
    02:00 +14°C° 0 mm 3 mps 738 mmHg 97%
    03:00 +14°C° 1.6 mm 3 mps 738 mmHg 97%
    04:00 +14°C° 1.6 mm 3 mps 738 mmHg 97%
    05:00 +15°C° 1.6 mm 2 mps 737 mmHg 97%
    06:00 +16°C° 1.2 mm 2 mps 737 mmHg 96%
    07:00 +16°C° 1.2 mm 2 mps 737 mmHg 95%
    08:00 +17°C° 1.2 mm 2 mps 737 mmHg 94%
    09:00 +18°C° 0.3 mm 2 mps 737 mmHg 90%
    10:00 +19°C° 0.3 mm 2 mps 737 mmHg 87%
    11:00 +20°C° 0.3 mm 2 mps 737 mmHg 84%
    12:00 +20°C° 0.7 mm 2 mps 737 mmHg 80%
    13:00 +21°C° 0.7 mm 2 mps 736 mmHg 77%
    14:00 +22°C° 0.7 mm 3 mps 736 mmHg 74%
    15:00 +21°C° 0.8 mm 2 mps 736 mmHg 77%
    16:00 +21°C° 0.8 mm 2 mps 736 mmHg 79%
    17:00 +20°C° 0.8 mm 2 mps 736 mmHg 82%
    18:00 +19°C° 0.7 mm 2 mps 736 mmHg 85%
    19:00 +18°C° 0.7 mm 3 mps 736 mmHg 87%
    20:00 +16°C° 0.7 mm 3 mps 736 mmHg 90%
    21:00 +14°C° 0 mm 3 mps 736 mmHg 91%
    22:00 +13°C° 0 mm 3 mps 736 mmHg 92%
    23:00 +14°C° 0 mm 2 mps 736 mmHg 94%

    Day after tomorrow, 26 May, Sunday

    Time Temperature Precipitation Wind Pressure Humidity
    00:00 +13°C° 0 mm 2 mps 736 mmHg 94%
    01:00 +12°C° 0 mm 2 mps 736 mmHg 95%
    02:00 +12°C° 0 mm 2 mps 736 mmHg 96%
    03:00 +12°C° 0 mm 2 mps 737 mmHg 96%
    04:00 +12°C° 0 mm 2 mps 737 mmHg 96%
    05:00 +12°C° 0 mm 2 mps 737 mmHg 96%
    06:00 +13°C° 0 mm 2 mps 737 mmHg 91%
    07:00 +14°C° 0 mm 2 mps 737 mmHg 86%
    08:00 +14°C° 0 mm 3 mps 738 mmHg 81%
    09:00 +16°C° 0 mm 3 mps 738 mmHg 75%
    10:00 +17°C° 0 mm 3 mps 738 mmHg 69%
    11:00 +18°C° 0 mm 3 mps 738 mmHg 62%
    12:00 +18°C° 0 mm 3 mps 738 mmHg 62%
    13:00 +19°C° 0 mm 4 mps 738 mmHg 62%
    14:00 +19°C° 0 mm 4 mps 737 mmHg 62%
    15:00 +19°C° 0 mm 4 mps 737 mmHg 63%
    16:00 +18°C° 0 mm 4 mps 737 mmHg 64%
    17:00 +18°C° 0 mm 4 mps 737 mmHg 65%
    18:00 +17°C° 0 mm 4 mps 737 mmHg 70%
    19:00 +14°C° 0 mm 3 mps 737 mmHg 76%
    20:00 +13°C° 0 mm 3 mps 737 mmHg 81%
    21:00 +13°C° 0 mm 3 mps 737 mmHg 82%
    22:00 +12°C° 0 mm 3 mps 737 mmHg 84%
    23:00 +12°C° 0 mm 4 mps 737 mmHg 85%

    27 May, Monday

    Time Temperature Precipitation Wind Pressure Humidity
    00:00 +11°C° 0 mm 3 mps 737 mmHg 87%
    01:00 +11°C° 0 mm 3 mps 737 mmHg 90%
    02:00 +11°C° 0 mm 3 mps 738 mmHg 93%
    03:00 +10°C° 0 mm 3 mps 738 mmHg 93%
    04:00 +10°C° 0 mm 3 mps 738 mmHg 92%
    05:00 +10°C° 0 mm 3 mps 739 mmHg 92%
    06:00 +11°C° 0 mm 4 mps 739 mmHg 85%
    07:00 +12°C° 0 mm 4 mps 740 mmHg 77%
    08:00 +13°C° 0 mm 5 mps 740 mmHg 70%
    09:00 +14°C° 0 mm 5 mps 740 mmHg 69%
    10:00 +15°C° 0 mm 5 mps 740 mmHg 67%
    11:00 +16°C° 0 mm 5 mps 741 mmHg 66%
    12:00 +16°C° 0.1 mm 5 mps 741 mmHg 68%
    13:00 +17°C° 0.1 mm 4 mps 741 mmHg 70%
    14:00 +17°C° 0.1 mm 4 mps 741 mmHg 72%
    15:00 +18°C° 0 mm 4 mps 741 mmHg 73%
    16:00 +18°C° 0 mm 4 mps 741 mmHg 73%
    17:00 +18°C° 0 mm 3 mps 741 mmHg 74%
    18:00 +17°C° 0 mm 3 mps 741 mmHg 78%
    19:00 +17°C° 0 mm 3 mps 741 mmHg 83%
    20:00 +16°C° 0 mm 3 mps 741 mmHg 87%
    21:00 +14°C° 0 mm 3 mps 741 mmHg 87%
    22:00 +14°C° 0 mm 3 mps 741 mmHg 87%
    23:00 +14°C° 0 mm 3 mps 741 mmHg 87%

    28 May, Tuesday

    Time Temperature Precipitation Wind Pressure Humidity
    00:00 +13°C° 0 mm 3 mps 741 mmHg 87%
    01:00 +13°C° 0 mm 3 mps 741 mmHg 88%
    02:00 +13°C° 0 mm 3 mps 741 mmHg 89%
    03:00 +13°C° 0 mm 3 mps 741 mmHg 89%
    04:00 +14°C° 0 mm 3 mps 741 mmHg 90%
    05:00 +14°C° 0 mm 3 mps 741 mmHg 90%
    06:00 +16°C° 0 mm 3 mps 741 mmHg 88%
    07:00 +18°C° 0 mm 3 mps 742 mmHg 85%
    08:00 +19°C° 0 mm 3 mps 742 mmHg 82%
    09:00 +21°C° 0 mm 3 mps 742 mmHg 77%
    10:00 +22°C° 0 mm 3 mps 742 mmHg 72%
    11:00 +24°C° 0 mm 3 mps 742 mmHg 67%
    12:00 +23°C° 0.5 mm 4 mps 742 mmHg 68%
    13:00 +25°C° 0.5 mm 4 mps 742 mmHg 69%
    14:00 +25°C° 0.5 mm 4 mps 742 mmHg 71%
    15:00 +23°C° 0.7 mm 4 mps 741 mmHg 76%
    16:00 +22°C° 0.7 mm 3 mps 741 mmHg 82%
    17:00 +21°C° 0.7 mm 3 mps 741 mmHg 87%
    18:00 +21°C° 0 mm 3 mps 741 mmHg 88%
    19:00 +20°C° 0 mm 4 mps 741 mmHg 88%
    20:00 +20°C° 0 mm 4 mps 741 mmHg 88%
    21:00 +20°C° 0 mm 4 mps 741 mmHg 87%
    22:00 +19°C° 0 mm 5 mps 741 mmHg 86%
    23:00 +19°C° 0 mm 5 mps 741 mmHg 85%

    29 May, Wednesday

    Time Temperature Precipitation Wind Pressure Humidity
    00:00 +19°C° 0 mm 5 mps 741 mmHg 87%
    01:00 +19°C° 0 mm 4 mps 740 mmHg 89%
    02:00 +19°C° 0 mm 4 mps 740 mmHg 91%
    03:00 +19°C° 0 mm 4 mps 740 mmHg 90%
    04:00 +17°C° 0 mm 5 mps 740 mmHg 89%
    05:00 +17°C° 0 mm 5 mps 740 mmHg 88%
    06:00 +19°C° 0 mm 5 mps 740 mmHg 83%
    07:00 +20°C° 0 mm 6 mps 740 mmHg 78%
    08:00 +21°C° 0 mm 6 mps 740 mmHg 73%
    09:00 +22°C° 0 mm 6 mps 740 mmHg 72%
    10:00 +23°C° 0 mm 6 mps 740 mmHg 71%
    11:00 +24°C° 0 mm 7 mps 740 mmHg 70%
    12:00 +24°C° 0.5 mm 7 mps 740 mmHg 71%
    13:00 +24°C° 0.5 mm 7 mps 739 mmHg 73%
    14:00 +26°C° 0.5 mm 7 mps 739 mmHg 75%
    15:00 +24°C° 1.6 mm 7 mps 739 mmHg 78%
    16:00 +23°C° 1.6 mm 6 mps 739 mmHg 81%
    17:00 +22°C° 1.6 mm 6 mps 739 mmHg 84%
    18:00 +21°C° 0.2 mm 5 mps 739 mmHg 87%
    19:00 +20°C° 0.2 mm 4 mps 739 mmHg 89%
    20:00 +20°C° 0.2 mm 3 mps 739 mmHg 92%
    21:00 +19°C° 0.3 mm 3 mps 739 mmHg 93%
    22:00 +19°C° 0.3 mm 3 mps 739 mmHg 94%
    23:00 +18°C° 0.3 mm 3 mps 739 mmHg 95%
    Show more